Location: Unspecified
(51.0950°N, 12.9690°E)
Time: 00:42:09
(UTC+00:00)

STRAND 1 - Visible Passes

Search period start: 19 April 2024 00:00
Search period end: 29 April 2024 00:00
Orbit: 764 x 779 km, 98.4° (Epoch: 18 April)

Date Brightness Start Highest point End Pass type
(mag) Time Alt. Az. Time Alt. Az. Time Alt. Az.
19 Apr ? 03:07:48 10° ESE 03:11:38 22° ENE 03:15:27 10° N visible
19 Apr ? 20:11:15 10° NW 20:11:56 10° NW 20:12:37 10° NW visible
20 Apr ? 02:35:01 10° ENE 02:37:15 13° NE 02:39:29 10° NNE visible
20 Apr ? 19:34:19 10° NNW 19:37:38 18° NW 19:40:57 10° W visible
21 Apr ? 18:58:46 10° N 19:03:10 30° WNW 19:07:33 10° WSW visible
22 Apr ? 03:02:36 10° ESE 03:06:15 20° ENE 03:09:55 10° N visible
22 Apr ? 20:05:07 10° NNW 20:06:35 11° NW 20:08:05 10° WNW visible
23 Apr ? 02:30:04 10° ENE 02:31:54 12° NE 02:33:44 10° NNE visible
23 Apr ? 19:28:44 10° NNW 19:32:16 19° NW 19:35:48 10° W visible
24 Apr ? 18:53:15 10° N 18:57:46 33° WNW 19:02:17 10° SW visible
25 Apr ? 02:57:25 10° E 03:00:52 19° NE 03:04:20 10° NNE visible
25 Apr ? 19:59:15 10° NNW 20:01:14 12° NW 20:03:13 10° WNW visible
26 Apr ? 02:25:14 10° ENE 02:26:32 11° NE 02:27:50 10° NNE visible
26 Apr ? 19:23:09 10° N 19:26:52 21° WNW 19:30:36 10° WSW visible
28 Apr ? 02:52:13 10° E 02:55:28 17° NE 02:58:43 10° NNE visible
28 Apr ? 19:53:29 10° NNW 19:55:51 13° NW 19:58:13 10° WNW visible
